Copper Harbor, MI

8:32 PM EDT on April 29, 2017 (GMT -0400)
Copper Harbor

Weather History for KP59 - October, 2012

Change the Weather History Date:

Friday, October 26, 2012

  Actual Average Record
Temperature  
Mean Temperature 40 °F -  
Max Temperature 42 °F 45 °F 71 °F (2000)
Min Temperature 37 °F 34 °F 28 °F (2006)
Degree Days  
Heating Degree Days 26    
Moisture  
Dew Point 28 °F    
Average Humidity 66    
Maximum Humidity 86    
Minimum Humidity 55    
Precipitation  
Precipitation 0.03 in - - ()
Sea Level Pressure  
Sea Level Pressure 30.09 in    
Wind  
Wind Speed 12 mph (NW)    
Max Wind Speed 21 mph    
Max Gust Speed 31 mph    
Averages and records for this station are not official NWS values.
T = Trace of Precipitation, MM = Missing Value Source: NWS Daily Summary

Daily Weather History Graph

Daily Weather History Graph

Search for Another Location

Airport or City:

Trip Planner

Search our weather history database for the weather conditions in past years. The results will help you decide how hot, cold, wet, or windy it might be!

Date:

Astronomy

Oct. 26, 2012 Rise Set
Actual Time 8:27 AM EDT 6:43 PM EDT
Civil Twilight 7:55 AM EDT 7:14 PM EDT
Nautical Twilight 7:19 AM EDT 7:50 PM EDT
Astronomical Twilight 6:43 AM EDT 8:26 PM EDT
Moon 5:07 PM EDT (10/26) 5:12 AM EDT (10/26)
Length of Visible Light 11h 19m
Length of Day
10h 16m
Waxing Gibbous, 91% of the Moon is Illuminated
Oct 26
Waxing Gibbous
Oct 29
Full
Nov 6
Last Quarter
Nov 13
New
Nov 20
First Quarter

Hourly Weather History & Observations

Time (EDT) Temp. Windchill Dew Point Humidity Pressure Visibility Wind Dir Wind Speed Gust Speed Precip Events Conditions
12:51 AM 39.9 °F 31.8 °F 34.0 °F 79% 29.82 in - NNW 15.0 mph 27.6 mph N/A   Unknown
1:51 AM 37.9 °F 27.6 °F 34.0 °F 86% 29.86 in - NNW 20.7 mph 25.3 mph 0.01 in   Unknown
2:51 AM 37.9 °F 31.5 °F 33.1 °F 83% 29.89 in - NW 9.2 mph 29.9 mph 0.01 in   Unknown
3:51 AM 39.0 °F 32.8 °F 32.0 °F 76% 29.91 in - NW 9.2 mph 21.9 mph 0.01 in   Unknown
4:51 AM 39.0 °F 34.0 °F 30.9 °F 73% 29.94 in - Variable 6.9 mph 18.4 mph N/A   Unknown
5:51 AM 39.0 °F 31.8 °F 28.9 °F 67% 29.96 in - NW 11.5 mph 28.8 mph N/A   Unknown
6:51 AM 39.0 °F 32.8 °F 28.9 °F 67% 29.97 in - NW 9.2 mph 27.6 mph N/A   Unknown
7:51 AM 37.9 °F 32.1 °F 30.9 °F 76% 30.00 in - WNW 8.1 mph 16.1 mph N/A   Unknown
8:51 AM 39.9 °F 33.4 °F 30.9 °F 70% 30.02 in - WNW 10.4 mph 17.3 mph N/A   Unknown
9:51 AM 41.0 °F 35.8 °F 30.0 °F 65% 30.05 in - NW 8.1 mph 21.9 mph N/A   Unknown
10:51 AM 41.0 °F 34.7 °F 30.0 °F 65% 30.09 in - NW 10.4 mph 23.0 mph N/A   Unknown
11:51 AM 39.9 °F 31.4 °F 30.9 °F 70% 30.12 in - NNW 16.1 mph 23.0 mph N/A   Unknown
12:51 PM 39.9 °F 32.1 °F 28.9 °F 65% 30.14 in - NW 13.8 mph 25.3 mph N/A   Unknown
1:51 PM 42.1 °F 33.9 °F 27.0 °F 55% 30.15 in - NNW 17.3 mph 26.5 mph N/A   Unknown
2:51 PM 41.0 °F 33.1 °F 27.0 °F 57% 30.17 in - NW 15.0 mph 31.1 mph N/A   Unknown
3:51 PM 39.0 °F 30.6 °F 26.1 °F 60% 30.19 in - NNW 15.0 mph 23.0 mph N/A   Unknown
4:51 PM 39.0 °F 34.0 °F 27.0 °F 62% 30.19 in - Variable 6.9 mph 21.9 mph N/A   Unknown
5:51 PM 39.0 °F 32.8 °F 25.0 °F 57% 30.20 in - NW 9.2 mph 19.6 mph N/A   Unknown
6:51 PM 39.0 °F 34.8 °F 26.1 °F 60% 30.21 in - Variable 5.8 mph 24.2 mph N/A   Unknown
7:51 PM 39.0 °F 32.8 °F 26.1 °F 60% 30.22 in - NW 9.2 mph - N/A   Unknown
8:51 PM 39.0 °F 32.8 °F 24.1 °F 55% 30.23 in - NNW 9.2 mph 19.6 mph N/A   Unknown
9:51 PM 39.0 °F 32.8 °F 24.1 °F 55% 30.24 in - NNW 9.2 mph 17.3 mph N/A   Unknown
10:51 PM 37.9 °F 32.7 °F 25.0 °F 60% 30.25 in - WNW 6.9 mph - N/A   Unknown
11:51 PM 37.9 °F 31.5 °F 23.0 °F 55% 30.27 in - NW 9.2 mph - N/A   Unknown